map of CRD home
CRD - Airport
Location
City:  Comodoro Rivadavia, Chubut, Argentina
Name:General Enrique Mosconi International Airport
ICAO:SAVC
IATA:CRD

Details
Type:Airport (Aerodrome, Airfield)
Use:Public/Civil, Military, International (customs port of entry)
Latitude:4547'07"S (-45.785346)
Longitude:6727'56"W (-67.465507)
Datum:WGS 1984
Elevation:190 ft (58 m)
Variation:6.30E (WMM2015 magnetic declination)
-0.11 annual change
Runways:1
Longest:9275 × 164 ft (2827 × 50 m), paved

Time
Time Zone:UTC-3
Local Time:

Weather
METAR:SAVC 140400Z 29019G34KT 260V320 CAVOK 21/09 Q1002
TAF:SAVC 132300Z 1400/1424 29025G40KT CAVOK TX28/1419Z TN12/1412Z
BECMG 1403/1405 25020G35KT SCT030 SCT090

Related Locations
Nearby:
Farthest:UUN: 12362 mi / 19894 km
Baruun-Urt [Baruun-Urt Airport], 051, MN

Find:

   beyond  
but within

Other Information
Maps:
NOTAMs:
Links:
Sources:

  
flag of Argentina
flag of Chubut
  

Sectional Chart

Flight Planning
at skyvector.com

Satellite Image

Google Maps Satellite view

 

Copyright © 2004-2017 Karl L. Swartz. All rights reserved.
The Great Circle Mapper name and logo are trademarks of the Great Circle Mapper.
All other trademarks mentioned herein belong to their respective owners.
Please see credits for attibutions and further copyright information.

  Follow gcmap on Facebook Follow gcmap on Twitter Follow gcmap on Google+ GCmap on LinkedIn

hCard Microformat

Geo Microformat